Regional Weather Roundup
Issued by NWS

Home | Current Version | Previous Version | Graphics & Text | Print | Product List | Glossary On
Versions: 1 2 3 4 5 6 7 8 9 10 11 12 13 14 15 16 17 18 19 20 21 22 23 24 25 26 27 28 29 30 31 32 33 34 35 36 37 38 39 40 41 42 43 44 45 46 47 48 49 50
000
ASUS43 KTOP 030108
RWRKS

WEATHER ROUNDUP FOR KANSAS
NATIONAL WEATHER SERVICE GOODLAND KS
800 PM CDT TUE JUN 02 2015

NOTE:  "FAIR" INDICATES FEW OR NO CLOUDS BELOW 12,000 FEET WITH NO
SIGNIFICANT WEATHER AND/OR OBSTRUCTIONS TO VISIBILITY.

KSZ001>006-013>018-027>032-041>047-030200-
NORTHWEST KANSAS

CITY           SKY/WX    TMP DP  RH WIND       PRES   REMARKS
GOODLAND       SUNNY     83  61  47 SE9       29.80F
HAYS           PTCLDY    84  64  51 SE16      29.80S
HILL CITY      PTCLDY    84  65  52 SE13      29.77F
RUSSELL        CLEAR     83  67  58 SE15      29.79S
$$

KSZ061>065-074>080-084>089-030200-
SOUTHWEST KANSAS

CITY           SKY/WX    TMP DP  RH WIND       PRES   REMARKS
DODGE CITY     CLEAR     85  61  44 S16       29.82R
ELKHART          N/A     86  60  41 MISG        N/A
GARDEN CITY    PTCLDY    84  62  47 S14       29.79R
GREAT BEND     CLEAR     82  66  57 S13       29.80S
LIBERAL        PTCLDY    86  61  42 S16       29.82S
PRATT          CLEAR     84  59  42 S14       29.85R
$$

KSZ066>073-081>083-090>101-030200-
SOUTHEAST KANSAS

CITY           SKY/WX    TMP DP  RH WIND       PRES   REMARKS
CHANUTE        CLEAR     78  67  68 SE7       29.92S
COFFEYVILLE    CLEAR     79  67  66 SE7       29.91S
HUTCHINSON     CLEAR     84  65  52 S15       29.84R
MEDICINE LODGE   N/A     86  65  49 S14G21    29.82R
NEWTON         PTCLDY    81  63  54 S15G21    29.89R
PARSONS        CLEAR     80  67  64 SE5       29.93S
WICHITA INTL   PTCLDY    84  65  52 S16G23    29.85R
WICHITA JABRA  PTCLDY    81  66  60 SE16      29.86S
WICHITA MCCONL PTCLDY    82  68  61 SE15      29.86S
WINFIELD       PTCLDY    81  68  64 SE10      29.88S
$$

KSZ007>012-019>026-033>040-048>060-102>105-030200-
NORTHEAST KANSAS

CITY           SKY/WX    TMP DP  RH WIND       PRES   REMARKS
CONCORDIA      CLEAR     81  66  60 SE16      29.83S
EMPORIA        CLEAR     78  67  68 SE12      29.89S
LAWRENCE       PTCLDY    73  63  70 SE10      29.93F
MANHATTAN      CLEAR     80  67  64 SE13      29.86S
MARYSVILLE     PTCLDY    73  66  78 SE15G22   29.88S
OLATHE IND     MOCLDY    73  62  68 SE13      29.95F
OLATHE EXE     MOCLDY    72  61  68 SE10      29.95S
SALINA         CLEAR     84  68  58 SE15      29.83R
TOPEKA BILLARD CLEAR     75  65  70 E14       29.91S
TOPEKA FORBES  CLEAR     76  65  68 SE12G21   29.90F
$$


USA.gov is the U.S. government's official web portal to all federal, state and local government web resources and services.